Location: Peterborough
(44.3091°N, 78.3197°W)
Time: 05:45:03
(UTC-04:00)

Vanguard 1 Rocket - Pass Details

Date: 30 March 2023
Orbit: 655 x 4220 km, 34.3° (Epoch: 04 June)

Event Time Altitude Azimuth Distance (km) Brightness Sun altitude
Rises 01:04:03 0° 259° (WSW) 8,386 12.3 -41.9°
Reaches altitude 10° 01:10:21 10° 256° (WSW) 7,143 11.8 -42.0°
Enters shadow 01:23:04 37° 243° (WSW) 4,470 10.5 -42.0°
Maximum altitude 01:31:56 59° 185° (S) 3,050 - -41.9°
Drops below altitude 10° 01:43:35 10° 110° (ESE) 4,117 - -41.7°
Exits shadow 01:45:22 - 107° (ESE) 4,559 10.9 -41.6°
Sets 01:46:09 0° 106° (ESE) 4,770 11.0 -41.6°
